Location: Archamps
(46.1365°N, 6.1329°E)
Time: 17:23:05
(UTC+00:00)

Lacrosse 5 rocket - Pass Details

Date: 28 January 2023
Orbit: 455 x 612 km, 57.0° (Epoch: 29 March)

Event Time Altitude Azimuth Distance (km) Brightness Sun altitude
Rises 17:08:37 0° 292° (WNW) 2,471 5.5 -6.3°
Reaches altitude 10° 17:11:26 10° 316° (NW) 1,600 4.0 -6.8°
Maximum altitude 17:13:37 15° 354° (N) 1,320 3.1 -7.2°
Drops below altitude 10° 17:15:49 10° 32° (NNE) 1,618 3.3 -7.5°
Enters shadow 17:16:43 - 42° (NE) 1,862 3.5 -7.7°
